"startDT [UTC]","vpos","CH4 [ppm]","stdev(CH4) [ppm]","CO2 [ppm]","stdev(CO2) [ppm]","H2O [ppm]","stdev(H2O)","p_LGR [torr]","T_LGR [C]","mt1_LGR [us]","mt2_LGR [us]","T_ECpre [C]","T_EC1 [C]","T_EC2 [C]","p_inlet [hPa]","p_in [hPa]","p_out [hPa]","T_inlet [C]","RH_inlet [%]","dwpt_inlet [C]","T_vent [C]","RH_vent [%]","dwpt_vent [C]","flow_vent [l min-1]","flow_inlet [l min-1]","dwpt_sample [C]","T_room [C]"
2012-06-04 00:00:00,0.0,,,,,,,,,,,0.88,-27.41,-27.41,-48,527,-921,17.0,28.8,-1.3,17.3,2.0,-32.4,5.73,2.44,-30.5,24.0
2012-06-04 00:01:00,0.0,1.8917,0.0010,401.49,0.20,-0.6,2.3,138.05,30.42,24.65,36.48,0.95,-27.55,-25.79,-48,527,-921,17.0,28.8,-1.3,17.3,2.1,-32.0,5.73,2.45,-30.6,24.0
2012-06-04 00:02:00,0.0,1.8918,0.0009,401.46,0.18,-0.3,3.5,138.04,30.42,24.64,36.48,0.72,-27.66,-23.81,-48,527,-921,17.0,28.7,-1.4,17.3,2.3,-31.0,5.73,2.44,-30.7,24.0
2012-06-04 00:03:00,0.0,1.8922,0.0007,401.39,0.18,-1.0,0.0,138.04,30.43,24.64,36.48,0.84,-27.72,-21.84,-48,527,-921,17.0,28.8,-1.3,17.3,2.5,-30.3,5.73,2.44,-30.7,23.9
2012-06-04 00:04:00,0.0,,,,,,,,,,,0.95,-27.73,-19.92,-48,527,-920,17.0,28.8,-1.3,17.3,2.6,-29.8,5.73,2.44,-30.6,24.0
2012-06-04 00:05:00,0.0,,,,,,,,,,,0.83,-27.74,-18.11,-48,527,-920,17.0,28.7,-1.3,17.3,2.6,-29.7,5.73,2.45,-30.7,24.0
2012-06-04 00:06:00,0.0,,,,,,,,,,,0.77,-27.74,-16.38,-48,527,-920,17.0,28.8,-1.3,17.3,2.6,-29.7,5.73,2.44,-30.7,24.0
2012-06-04 00:07:00,0.0,,,,,,,,,,,0.88,-27.72,-14.74,-48,527,-921,17.0,28.8,-1.3,17.3,2.6,-29.8,5.73,2.44,-30.7,23.9
2012-06-04 00:08:00,0.0,,,,,,,,,,,0.96,-27.70,-13.19,-48,527,-921,17.0,28.6,-1.4,17.3,2.6,-29.9,5.73,2.45,-30.7,23.9
2012-06-04 00:09:00,0.0,,,,,,,,,,,0.80,-27.69,-11.72,-48,527,-921,17.0,28.8,-1.3,17.3,2.5,-30.0,5.73,2.44,-30.7,23.9
2012-06-04 00:10:00,0.0,,,,,,,,,,,0.77,-27.67,-10.32,-48,527,-920,17.0,28.6,-1.4,17.3,2.5,-30.1,5.73,2.44,-30.7,23.9
2012-06-04 00:11:00,0.0,,,,,,,,,,,0.89,-27.65,-9.00,-48,527,-920,17.0,28.5,-1.4,17.3,2.5,-30.2,5.73,2.44,-30.7,23.9
2012-06-04 00:12:00,0.0,,,,,,,,,,,0.96,-27.63,-7.74,-48,527,-920,17.0,28.6,-1.4,17.3,2.5,-30.3,5.73,2.44,-30.7,23.9
2012-06-04 00:13:00,0.0,,,,,,,,,,,0.82,-27.60,-6.55,-48,527,-921,17.0,28.4,-1.5,17.3,2.5,-30.4,5.73,2.44,-30.7,23.9
2012-06-04 00:14:00,0.0,,,,,,,,,,,0.78,-27.58,-5.41,-48,527,-921,17.0,28.4,-1.5,17.3,2.4,-30.5,5.73,2.44,-30.7,24.0
2012-06-04 00:15:00,0.0,,,,,,,,,,,0.86,-27.56,-4.34,-48,527,-921,17.0,28.4,-1.5,17.3,2.4,-30.5,5.73,2.44,-30.7,24.0
2012-06-04 00:16:00,0.0,,,,,,,,,,,0.93,-27.54,-3.31,-48,527,-921,17.0,28.5,-1.4,17.3,2.4,-30.6,5.73,2.44,-30.7,24.0
2012-06-04 00:17:00,0.0,,,,,,,,,,,0.91,-27.52,-2.33,-48,527,-920,17.0,28.6,-1.4,17.3,2.4,-30.7,5.73,2.44,-30.7,23.9
2012-06-04 00:18:00,0.0,,,,,,,,,,,0.77,-27.50,-1.40,-48,527,-920,17.0,28.7,-1.4,17.3,2.4,-30.7,5.73,2.44,-30.7,23.9
2012-06-04 00:19:00,0.0,,,,,,,,,,,0.85,-27.48,-0.52,-48,527,-920,17.0,28.4,-1.5,17.3,2.4,-30.8,5.73,2.44,-30.7,24.0
2012-06-04 00:20:00,0.0,,,,,,,,,,,0.89,-27.46,0.32,-48,527,-921,17.0,28.3,-1.5,17.3,2.4,-30.8,5.73,2.44,-30.7,24.0
2012-06-04 00:21:00,0.0,,,,,,,,,,,0.95,-27.44,1.11,-48,527,-921,17.0,28.4,-1.5,17.3,2.4,-30.8,5.73,2.45,-30.7,24.0
2012-06-04 00:22:00,0.0,,,,,,,,,,,0.87,-27.42,1.85,-48,527,-921,17.0,28.5,-1.4,17.3,2.3,-30.9,5.73,2.44,-30.7,24.0
2012-06-04 00:23:00,0.0,,,,,,,,,,,0.80,-27.41,2.52,-48,527,-920,17.0,28.6,-1.4,17.3,2.3,-30.9,5.73,2.44,-30.7,24.0
2012-06-04 00:24:00,0.0,,,,,,,,,,,0.85,-27.38,3.00,-48,527,-920,17.0,28.3,-1.5,17.3,2.3,-30.9,5.73,2.44,-30.7,24.0
2012-06-04 00:25:00,0.0,,,,,,,,,,,0.90,-27.37,3.24,-48,527,-920,17.0,28.3,-1.5,17.3,2.3,-31.0,5.73,2.44,-30.7,24.0
2012-06-04 00:26:00,0.0,,,,,,,,,,,0.95,-27.35,3.58,-48,527,-921,17.0,28.1,-1.6,17.3,2.3,-31.1,5.73,2.44,-30.7,24.0
2012-06-04 00:27:00,0.0,,,,,,,,,,,0.87,-27.33,4.08,-48,527,-921,17.0,28.1,-1.6,17.3,2.3,-31.1,5.73,2.44,-30.7,24.0
2012-06-04 00:28:00,0.0,,,,,,,,,,,0.79,-27.31,4.66,-48,527,-921,17.0,28.2,-1.6,17.3,2.3,-31.0,5.73,2.44,-30.7,24.0
2012-06-04 00:29:00,0.0,,,,,,,,,,,0.85,-27.30,5.24,-48,527,-920,17.0,28.5,-1.5,17.3,2.3,-31.1,5.73,2.45,-30.7,24.0
2012-06-04 00:30:00,0.0,,,,,,,,,,,0.90,-27.28,5.78,-48,527,-920,17.0,28.7,-1.3,17.3,2.3,-31.2,5.73,2.45,-30.7,24.0
2012-06-04 00:31:00,0.0,,,,,,,,,,,0.95,-27.27,6.30,-48,527,-920,17.0,28.6,-1.4,17.3,2.3,-31.2,5.73,2.44,-30.7,24.0
2012-06-04 00:32:00,0.0,,,,,,,,,,,0.93,-27.26,6.78,-48,527,-920,17.0,28.5,-1.4,17.3,2.3,-31.2,5.73,2.44,-30.7,24.0
2012-06-04 00:33:00,0.0,,,,,,,,,,,0.80,-27.24,7.24,-48,527,-921,17.0,28.6,-1.4,17.3,2.3,-31.2,5.73,2.44,-30.7,24.0
2012-06-04 00:34:00,0.0,,,,,,,,,,,0.84,-27.23,7.68,-48,527,-921,17.0,29.2,-1.1,17.3,2.3,-31.2,5.73,2.44,-30.7,24.0
2012-06-04 00:35:00,0.0,,,,,,,,,,,0.88,-27.21,8.10,-48,527,-921,17.0,29.2,-1.1,17.3,2.3,-31.2,5.73,2.44,-30.7,24.0
2012-06-04 00:36:00,0.0,,,,,,,,,,,0.93,-27.20,8.49,-48,527,-920,17.0,29.2,-1.1,17.3,2.3,-31.3,5.73,2.44,-30.7,24.0
2012-06-04 00:37:00,0.0,,,,,,,,,,,0.95,-27.19,8.88,-48,527,-920,17.0,29.1,-1.1,17.4,2.3,-31.3,5.73,2.43,-30.7,24.0
2012-06-04 00:38:00,0.0,,,,,,,,,,,0.88,-27.17,9.25,-48,527,-920,17.0,28.9,-1.2,17.4,2.3,-31.3,5.73,2.44,-30.7,24.0
2012-06-04 00:39:00,0.0,,,,,,,,,,,0.81,-27.17,9.60,-48,527,-920,17.0,28.8,-1.3,17.3,2.2,-31.3,5.73,2.43,-30.7,24.0
2012-06-04 00:40:00,0.0,,,,,,,,,,,0.85,-27.16,9.94,-48,527,-921,17.0,29.0,-1.2,17.4,2.2,-31.3,5.73,2.44,-30.7,24.0
2012-06-04 00:41:00,0.0,,,,,,,,,,,0.88,-27.14,10.28,-47,527,-921,17.0,29.1,-1.1,17.4,2.3,-31.3,5.73,2.43,-30.7,24.0
2012-06-04 00:42:00,0.0,,,,,,,,,,,0.94,-27.13,10.59,-48,527,-921,17.0,29.0,-1.2,17.4,2.2,-31.3,5.73,2.43,-30.7,24.0
2012-06-04 00:43:00,0.0,,,,,,,,,,,0.95,-27.13,10.90,-48,527,-920,17.0,29.3,-1.0,17.3,2.2,-31.3,5.73,2.43,-30.6,24.0
2012-06-04 00:44:00,0.0,,,,,,,,,,,0.87,-27.11,11.22,-48,527,-920,17.0,29.2,-1.1,17.4,2.3,-31.3,5.73,2.44,-30.6,24.1
2012-06-04 00:45:00,0.0,,,,,,,,,,,0.83,-27.11,11.51,-48,527,-920,17.0,29.1,-1.1,17.4,2.2,-31.3,5.73,2.43,-30.6,24.0
2012-06-04 00:46:00,0.0,,,,,,,,,,,0.84,-27.10,11.79,-48,527,-920,17.0,29.4,-1.0,17.4,2.3,-31.3,5.73,2.43,-30.6,24.0
2012-06-04 00:47:00,0.0,,,,,,,,,,,0.88,-27.09,12.07,-48,527,-920,17.0,29.6,-0.9,17.4,2.3,-31.3,5.73,2.44,-30.6,24.1
2012-06-04 00:48:00,0.0,,,,,,,,,,,0.92,-27.08,12.34,-48,527,-921,17.0,29.3,-1.0,17.4,2.2,-31.3,5.73,2.44,-30.7,24.0
2012-06-04 00:49:00,0.0,,,,,,,,,,,0.95,-27.08,12.59,-48,527,-921,17.0,29.1,-1.1,17.4,2.3,-31.3,5.73,2.44,-30.6,24.0
2012-06-04 00:50:00,0.0,,,,,,,,,,,0.90,-27.07,12.83,-48,527,-920,17.0,29.1,-1.1,17.4,2.3,-31.3,5.73,2.44,-30.6,24.1
2012-06-04 00:51:00,0.0,,,,,,,,,,,0.83,-27.06,13.07,-48,527,-920,17.0,28.9,-1.2,17.4,2.2,-31.3,5.73,2.44,-30.6,24.1
2012-06-04 00:52:00,0.0,,,,,,,,,,,0.83,-27.05,13.30,-48,527,-920,17.0,29.0,-1.1,17.4,2.3,-31.3,5.73,2.44,-30.6,24.1
2012-06-04 00:53:00,0.0,,,,,,,,,,,0.88,-27.04,13.51,-48,527,-920,17.0,29.0,-1.1,17.4,2.2,-31.3,5.73,2.44,-30.6,24.1
2012-06-04 00:54:00,0.0,,,,,,,,,,,0.90,-27.03,13.71,-48,527,-921,17.0,28.9,-1.2,17.4,2.2,-31.3,5.73,2.44,-30.6,24.1
2012-06-04 00:55:00,0.0,,,,,,,,,,,0.94,-27.03,13.91,-48,527,-921,17.0,29.0,-1.1,17.4,2.3,-31.3,5.73,2.44,-30.6,24.1
2012-06-04 00:56:00,0.0,,,,,,,,,,,0.94,-27.02,14.10,-48,527,-921,17.0,29.1,-1.1,17.4,2.3,-31.3,5.73,2.44,-30.6,24.0
2012-06-04 00:57:00,0.0,,,,,,,,,,,0.86,-27.02,14.27,-48,527,-920,17.0,28.9,-1.2,17.4,2.2,-31.3,5.73,2.44,-30.6,24.1
2012-06-04 00:58:00,0.0,,,,,,,,,,,0.83,-27.01,14.45,-48,527,-920,17.0,28.7,-1.3,17.4,2.3,-31.3,5.73,2.44,-30.6,24.1
2012-06-04 00:59:00,0.0,,,,,,,,,,,0.88,-27.00,14.61,-48,527,-920,17.0,29.0,-1.1,17.4,2.3,-31.3,5.73,2.43,-30.6,24.1
2012-06-04 01:00:00,0.0,,,,,,,,,,,0.88,-27.00,14.76,-48,527,-920,17.0,28.8,-1.2,17.4,2.2,-31.3,5.73,2.43,-30.6,24.1
2012-06-04 01:01:00,0.0,1.8917,0.0010,401.49,0.20,-0.6,2.3,138.05,30.42,24.65,36.48,0.92,-27.00,14.91,-48,527,-921,17.0,28.6,-1.3,17.4,2.3,-31.3,5.73,2.44,-30.6,24.1
2012-06-04 01:02:00,0.0,1.8918,0.0009,401.46,0.18,-0.3,3.5,138.04,30.42,24.64,36.48,0.94,-26.99,15.06,-48,527,-920,17.0,28.5,-1.4,17.4,2.2,-31.3,5.73,2.43,-30.6,24.0
2012-06-04 01:03:00,0.0,1.8922,0.0007,401.39,0.18,-1.0,0.0,138.04,30.43,24.64,36.48,0.93,-26.99,15.19,-48,527,-920,17.0,28.5,-1.4,17.4,2.3,-31.3,5.73,2.43,-30.6,24.1
2012-06-04 01:04:00,0.0,,,,,,,,,,,0.85,-26.98,15.32,-48,527,-920,17.0,28.5,-1.4,17.4,2.2,-31.3,5.73,2.43,-30.6,24.1
2012-06-04 01:05:00,0.0,,,,,,,,,,,0.84,-26.98,15.45,-48,527,-920,17.0,28.6,-1.3,17.4,2.2,-31.3,5.73,2.43,-30.6,24.1
2012-06-04 01:06:00,0.0,,,,,,,,,,,0.86,-26.98,15.56,-48,527,-920,17.1,28.9,-1.2,17.4,2.3,-31.3,5.73,2.43,-30.5,24.1
2012-06-04 01:07:00,0.0,,,,,,,,,,,0.88,-26.97,15.68,-48,527,-920,17.1,28.9,-1.2,17.4,2.3,-31.3,5.73,2.43,-30.6,24.1
2012-06-04 01:08:00,0.0,,,,,,,,,,,0.92,-26.96,15.79,-48,527,-921,17.0,28.7,-1.3,17.4,2.3,-31.3,5.73,2.43,-30.6,24.1
2012-06-04 01:09:00,0.0,,,,,,,,,,,0.94,-26.96,15.90,-48,527,-920,17.0,28.6,-1.3,17.4,2.3,-31.3,5.73,2.44,-30.6,24.1
2012-06-04 01:10:00,0.0,,,,,,,,,,,0.93,-26.96,15.99,-48,527,-920,17.0,28.3,-1.5,17.4,2.2,-31.3,5.73,2.44,-30.6,24.1
2012-06-04 01:11:00,0.0,,,,,,,,,,,0.87,-26.95,16.09,-48,527,-920,17.0,28.4,-1.4,17.4,2.3,-31.3,5.73,2.44,-30.6,24.1
2012-06-04 01:12:00,0.0,,,,,,,,,,,0.83,-26.95,16.18,-48,527,-920,17.0,28.3,-1.5,17.4,2.3,-31.3,5.73,2.44,-30.5,24.1
2012-06-04 01:13:00,0.0,,,,,,,,,,,0.85,-26.95,16.26,-48,527,-920,17.0,28.2,-1.5,17.4,2.2,-31.3,5.73,2.44,-30.6,24.1
2012-06-04 01:14:00,0.0,,,,,,,,,,,0.89,-26.94,16.35,-48,527,-920,17.1,28.2,-1.5,17.4,2.3,-31.2,5.73,2.44,-30.6,24.1
2012-06-04 01:15:00,0.0,,,,,,,,,,,0.91,-26.94,16.43,-48,527,-921,17.1,28.6,-1.3,17.4,2.2,-31.3,5.73,2.44,-30.6,24.1
2012-06-04 01:16:00,0.0,,,,,,,,,,,0.94,-26.94,16.50,-48,527,-921,17.1,28.4,-1.4,17.4,2.3,-31.2,5.73,2.44,-30.6,24.1
2012-06-04 01:17:00,0.0,,,,,,,,,,,0.92,-26.94,16.58,-48,527,-920,17.1,28.1,-1.5,17.5,2.2,-31.2,5.73,2.44,-30.5,24.1
2012-06-04 01:18:00,0.0,,,,,,,,,,,0.85,-26.93,16.65,-48,527,-920,17.1,28.2,-1.5,17.5,2.2,-31.2,5.73,2.44,-30.5,24.1
2012-06-04 01:19:00,0.0,,,,,,,,,,,0.84,-26.93,16.72,-48,527,-920,17.1,28.2,-1.4,17.4,2.2,-31.2,5.73,2.44,-30.5,24.1
2012-06-04 01:20:00,1.0,,,,,,,,,,,0.84,-26.93,16.78,-48,623,-920,17.1,28.2,-1.4,17.4,2.2,-31.3,5.73,2.44,-30.5,24.1
2012-06-04 01:21:00,1.0,,,,,,,,,,,0.89,-26.92,16.85,-48,622,-920,17.1,28.1,-1.5,17.4,2.3,-31.2,5.73,2.43,-30.6,24.1
2012-06-04 01:22:00,1.0,,,,,,,,,,,0.92,-26.92,16.90,-48,622,-921,17.1,28.1,-1.5,17.5,2.2,-31.2,5.73,2.43,-30.5,24.1
2012-06-04 01:23:00,1.0,,,,,,,,,,,0.94,-26.93,16.96,-48,622,-921,17.1,28.0,-1.5,17.5,2.2,-31.3,5.73,2.43,-30.5,24.2
2012-06-04 01:24:00,1.0,,,,,,,,,,,0.93,-26.92,17.01,-48,622,-920,17.2,28.1,-1.5,17.5,2.2,-31.3,5.73,2.43,-30.5,24.2
2012-06-04 01:25:00,0.0,,,,,,,,,,,0.88,-26.92,17.07,-48,525,-920,17.2,28.0,-1.5,17.5,2.2,-31.3,5.73,2.45,-30.5,24.2
2012-06-04 01:26:00,0.0,,,,,,,,,,,0.82,-26.92,17.11,-48,526,-920,17.2,28.0,-1.5,17.6,2.2,-31.3,5.73,2.43,-30.5,24.2
2012-06-04 01:27:00,0.0,,,,,,,,,,,0.86,-26.92,17.16,-48,526,-920,17.3,28.3,-1.3,17.6,2.2,-31.3,5.73,2.43,-30.4,24.2
2012-06-04 01:28:00,0.0,,,,,,,,,,,0.89,-26.91,17.20,-48,526,-920,17.3,28.5,-1.1,17.6,2.2,-31.3,5.73,2.44,-30.4,24.2
2012-06-04 01:29:00,0.0,,,,,,,,,,,0.91,-26.91,17.25,-48,526,-921,17.3,28.7,-1.1,17.7,2.2,-31.3,5.73,2.43,-30.4,24.2
2012-06-04 01:30:00,0.0,,,,,,,,,,,0.94,-26.91,17.29,-48,526,-920,17.3,28.5,-1.1,17.7,2.2,-31.2,5.73,2.44,-30.4,24.2
2012-06-04 01:31:00,0.0,,,,,,,,,,,0.95,-26.91,17.33,-48,526,-920,17.3,28.5,-1.1,17.7,2.2,-31.2,5.73,2.43,-30.4,24.2
2012-06-04 01:32:00,0.0,,,,,,,,,,,0.89,-26.91,17.37,-48,526,-920,17.3,28.4,-1.2,17.7,2.2,-31.2,5.73,2.44,-30.4,24.2
2012-06-04 01:33:00,0.0,,,,,,,,,,,0.84,-26.91,17.40,-48,527,-920,17.3,28.4,-1.2,17.7,2.2,-31.2,5.73,2.44,-30.4,24.2
2012-06-04 01:34:00,0.0,,,,,,,,,,,0.85,-26.90,17.44,-48,527,-920,17.3,28.4,-1.2,17.7,2.2,-31.2,5.73,2.44,-30.4,24.2
2012-06-04 01:35:00,0.0,,,,,,,,,,,0.88,-26.90,17.47,-48,527,-920,17.3,28.3,-1.2,17.7,2.2,-31.2,5.73,2.43,-30.4,24.2
2012-06-04 01:36:00,0.0,,,,,,,,,,,0.89,-26.90,17.50,-48,527,-921,17.3,28.3,-1.2,17.7,2.2,-31.2,5.73,2.44,-30.4,24.2
2012-06-04 01:37:00,0.0,,,,,,,,,,,0.92,-26.90,17.53,-48,527,-920,17.3,28.3,-1.2,17.7,2.2,-31.2,5.73,2.44,-30.4,24.3
2012-06-04 01:38:00,0.0,,,,,,,,,,,0.95,-26.89,17.57,-48,527,-920,17.3,28.4,-1.2,17.7,2.2,-31.2,5.73,2.44,-30.4,24.3
2012-06-04 01:39:00,0.0,,,,,,,,,,,0.93,-26.89,17.59,-48,527,-920,17.3,28.3,-1.2,17.7,2.2,-31.2,5.73,2.43,-30.4,24.3
2012-06-04 01:40:00,0.0,,,,,,,,,,,0.85,-26.89,17.61,-48,527,-920,17.3,28.4,-1.2,17.7,2.2,-31.2,5.73,2.43,-30.4,24.2
2012-06-04 01:41:00,0.0,,,,,,,,,,,0.83,-26.89,17.64,-48,527,-921,17.3,28.3,-1.3,17.7,2.2,-31.2,5.73,2.43,-30.4,24.2
2012-06-04 01:42:00,0.0,,,,,,,,,,,0.86,-26.89,17.66,-48,527,-920,17.2,28.4,-1.2,17.7,2.2,-31.2,5.73,2.43,-30.5,24.3
2012-06-04 01:43:00,0.0,,,,,,,,,,,0.89,-26.89,17.69,-48,527,-920,17.2,28.6,-1.2,17.6,2.2,-31.2,5.73,2.43,-30.5,24.2
2012-06-04 01:44:00,0.0,,,,,,,,,,,0.92,-26.89,17.71,-48,526,-920,17.2,28.8,-1.1,17.6,2.2,-31.2,5.73,2.43,-30.5,24.2
2012-06-04 01:45:00,0.0,,,,,,,,,,,0.95,-26.88,17.74,-48,526,-920,17.2,28.7,-1.2,17.6,2.2,-31.3,5.73,2.43,-30.5,24.2
2012-06-04 01:46:00,0.0,,,,,,,,,,,0.93,-26.89,17.75,-48,526,-920,17.1,28.7,-1.2,17.6,2.2,-31.3,5.73,2.43,-30.5,24.2
2012-06-04 01:47:00,0.0,,,,,,,,,,,0.84,-26.89,17.77,-48,526,-921,17.1,28.7,-1.2,17.6,2.2,-31.3,5.73,2.43,-30.6,24.3
2012-06-04 01:48:00,0.0,,,,,,,,,,,0.83,-26.89,17.79,-48,526,-920,17.1,29.0,-1.1,17.5,2.2,-31.3,5.73,2.43,-30.6,24.2
2012-06-04 01:49:00,0.0,,,,,,,,,,,0.87,-26.89,17.81,-48,526,-920,17.1,29.2,-1.0,17.5,2.2,-31.3,5.73,2.43,-30.6,24.2
2012-06-04 01:50:00,0.0,,,,,,,,,,,0.89,-26.89,17.82,-48,526,-920,17.0,29.1,-1.1,17.5,2.2,-31.3,5.73,2.44,-30.6,24.2
2012-06-04 01:51:00,0.0,,,,,,,,,,,0.91,-26.89,17.84,-48,526,-920,17.0,29.2,-1.1,17.5,2.2,-31.3,5.73,2.44,-30.6,24.2
2012-06-04 01:52:00,0.0,,,,,,,,,,,0.95,-26.89,17.85,-48,526,-920,17.0,29.3,-1.0,17.5,2.2,-31.3,5.73,2.44,-30.6,24.2
2012-06-04 01:53:00,0.0,,,,,,,,,,,0.94,-26.89,17.86,-48,526,-919,17.0,29.0,-1.1,17.5,2.2,-31.3,5.73,2.44,-30.6,24.2
2012-06-04 01:54:00,0.0,,,,,,,,,,,0.86,-26.89,17.88,-48,526,-919,17.0,28.9,-1.2,17.5,2.2,-31.3,5.73,2.45,-30.6,24.2
2012-06-04 01:55:00,0.0,,,,,,,,,,,0.83,-26.89,17.90,-48,526,-919,17.0,29.0,-1.1,17.5,2.2,-31.3,5.73,2.44,-30.6,24.2
2012-06-04 01:56:00,0.0,,,,,,,,,,,0.85,-26.90,17.91,-48,526,-920,17.0,29.0,-1.1,17.5,2.2,-31.3,5.73,2.44,-30.6,24.2
2012-06-04 01:57:00,0.0,,,,,,,,,,,0.89,-26.90,17.91,-48,526,-920,17.0,28.9,-1.2,17.5,2.2,-31.3,5.73,2.44,-30.6,24.2
2012-06-04 01:58:00,0.0,,,,,,,,,,,1.07,-26.89,17.09,-48,526,-920,17.0,28.9,-1.2,17.5,2.2,-31.3,5.73,2.44,-30.6,24.2
2012-06-04 01:59:00,0.0,,,,,,,,,,,1.09,-26.89,14.97,-48,526,-920,17.0,28.7,-1.3,17.5,2.2,-31.4,5.73,2.44,-30.6,24.2
2012-06-04 02:00:00,0.0,,,,,,,,,,,0.92,-26.89,12.59,-48,526,-920,17.0,28.8,-1.3,17.5,2.2,-31.3,5.73,2.44,-30.6,24.2
2012-06-04 02:01:00,0.0,1.8917,0.0010,401.49,0.20,-0.6,2.3,138.05,30.42,24.65,36.48,1.00,-26.90,10.21,-48,526,-920,17.0,28.8,-1.2,17.5,2.2,-31.3,5.73,2.44,-30.6,24.2
2012-06-04 02:02:00,0.0,1.8918,0.0009,401.46,0.18,-0.3,3.5,138.04,30.42,24.64,36.48,1.04,-26.91,7.89,-48,526,-920,17.0,28.9,-1.2,17.5,2.2,-31.4,5.73,2.43,-30.6,24.2
2012-06-04 02:03:00,0.0,1.8922,0.0007,401.39,0.18,-1.0,0.0,138.04,30.43,24.64,36.48,0.94,-26.92,5.67,-48,526,-920,17.0,28.8,-1.2,17.5,2.2,-31.4,5.73,2.44,-30.6,24.2
2012-06-04 02:04:00,0.0,,,,,,,,,,,0.94,-26.92,3.54,-48,526,-919,17.0,29.0,-1.1,17.5,2.2,-31.3,5.73,2.44,-30.6,24.2
2012-06-04 02:05:00,0.0,,,,,,,,,,,1.03,-26.92,1.54,-48,526,-919,17.0,29.2,-1.0,17.5,2.2,-31.3,5.73,2.43,-30.6,24.2
2012-06-04 02:06:00,0.0,,,,,,,,,,,1.01,-26.92,-0.36,-48,526,-920,17.0,29.1,-1.1,17.5,2.2,-31.3,5.73,2.43,-30.5,24.2
2012-06-04 02:07:00,0.0,,,,,,,,,,,0.92,-26.93,-2.09,-48,526,-920,17.0,29.2,-1.1,17.5,2.2,-31.3,5.73,2.44,-30.5,24.2
2012-06-04 02:08:00,0.0,,,,,,,,,,,0.98,-26.92,-3.68,-48,526,-920,17.0,29.1,-1.1,17.5,2.2,-31.3,5.73,2.43,-30.5,24.2
2012-06-04 02:09:00,0.0,,,,,,,,,,,1.04,-26.93,-5.25,-48,526,-920,17.0,29.3,-1.0,17.5,2.2,-31.3,5.73,2.43,-30.5,24.2
2012-06-04 02:10:00,0.0,,,,,,,,,,,0.97,-26.93,-6.69,-48,526,-920,17.1,29.2,-1.0,17.5,2.2,-31.3,5.73,2.43,-30.5,24.3
2012-06-04 02:11:00,0.0,,,,,,,,,,,0.92,-26.94,-8.09,-48,526,-920,17.1,29.2,-1.0,17.6,2.2,-31.3,5.73,2.44,-30.5,24.3
2012-06-04 02:12:00,0.0,,,,,,,,,,,0.96,-26.94,-9.32,-48,526,-919,17.1,29.2,-1.0,17.6,2.2,-31.3,5.73,2.44,-30.5,24.3
2012-06-04 02:13:00,0.0,,,,,,,,,,,1.03,-26.96,-10.48,-48,527,-919,17.1,29.4,-0.9,17.6,2.2,-31.3,5.73,2.44,-30.5,24.3
2012-06-04 02:14:00,0.0,,,,,,,,,,,0.98,-26.96,-11.64,-48,527,-919,17.1,29.5,-0.8,17.6,2.2,-31.4,5.73,2.44,-30.5,24.3
2012-06-04 02:15:00,0.0,,,,,,,,,,,0.90,-26.97,-12.78,-48,527,-920,17.1,29.2,-1.0,17.6,2.2,-31.4,5.73,2.44,-30.5,24.3
2012-06-04 02:16:00,0.0,,,,,,,,,,,0.94,-26.98,-13.83,-48,526,-920,17.1,29.2,-1.0,17.6,2.2,-31.4,5.73,2.44,-30.5,24.3
2012-06-04 02:17:00,0.0,,,,,,,,,,,0.99,-26.99,-14.78,-48,527,-920,17.1,29.2,-1.0,17.6,2.2,-31.4,5.73,2.44,-30.5,24.3
2012-06-04 02:18:00,0.0,,,,,,,,,,,1.01,-27.00,-15.74,-48,527,-920,17.2,29.2,-0.9,17.6,2.2,-31.4,5.73,2.44,-30.5,24.3
2012-06-04 02:19:00,0.0,,,,,,,,,,,0.97,-27.01,-16.60,-48,527,-920,17.1,29.0,-1.1,17.6,2.2,-31.4,5.73,2.44,-30.4,24.3
2012-06-04 02:20:00,0.0,,,,,,,,,,,0.91,-27.02,-17.39,-48,527,-919,17.1,28.7,-1.2,17.6,2.2,-31.4,5.73,2.44,-30.4,24.3
2012-06-04 02:21:00,0.0,,,,,,,,,,,0.93,-27.03,-18.09,-48,527,-919,17.2,28.5,-1.2,17.6,2.2,-31.4,5.73,2.44,-30.4,24.3
2012-06-04 02:22:00,0.0,,,,,,,,,,,0.97,-27.04,-18.84,-48,527,-920,17.2,28.4,-1.3,17.6,2.2,-31.5,5.73,2.44,-30.4,24.3
2012-06-04 02:23:00,0.0,,,,,,,,,,,1.02,-27.05,-19.57,-48,527,-920,17.2,28.2,-1.4,17.6,2.2,-31.5,5.73,2.44,-30.4,24.3
2012-06-04 02:24:00,0.0,,,,,,,,,,,0.99,-27.07,-20.25,-48,527,-920,17.2,28.3,-1.3,17.6,2.2,-31.5,5.73,2.43,-30.4,24.3
2012-06-04 02:25:00,0.0,,,,,,,,,,,0.92,-27.08,-20.88,-48,527,-920,17.2,28.6,-1.2,17.7,2.2,-31.5,5.73,2.43,-30.4,24.3
2012-06-04 02:26:00,0.0,,,,,,,,,,,0.91,-27.09,-21.47,-48,527,-920,17.2,28.3,-1.3,17.7,2.2,-31.5,5.73,2.43,-30.4,24.3
2012-06-04 02:27:00,0.0,,,,,,,,,,,0.94,-27.10,-22.03,-48,527,-919,17.2,28.4,-1.3,17.7,2.2,-31.5,5.73,2.44,-30.4,24.3
2012-06-04 02:28:00,0.0,,,,,,,,,,,0.97,-27.12,-22.55,-48,527,-919,17.2,28.4,-1.3,17.7,2.2,-31.5,5.73,2.43,-30.4,24.3
2012-06-04 02:29:00,0.0,,,,,,,,,,,1.02,-27.13,-23.03,-48,527,-920,17.2,28.6,-1.2,17.7,2.2,-31.5,5.73,2.43,-30.4,24.3
2012-06-04 02:30:00,0.0,,,,,,,,,,,0.99,-27.14,-23.49,-48,527,-920,17.2,28.5,-1.2,17.7,2.2,-31.5,5.73,2.43,-30.4,24.3
2012-06-04 02:31:00,0.0,,,,,,,,,,,0.93,-27.15,-23.92,-48,527,-920,17.2,28.3,-1.3,17.7,2.1,-31.6,5.73,2.43,-30.4,24.3
2012-06-04 02:32:00,0.0,,,,,,,,,,,0.91,-27.16,-24.32,-48,527,-920,17.2,28.3,-1.3,17.7,2.1,-31.6,5.73,2.43,-30.4,24.3
2012-06-04 02:33:00,0.0,,,,,,,,,,,0.93,-27.18,-24.71,-48,527,-920,17.2,28.5,-1.2,17.7,2.1,-31.7,5.73,2.43,-30.4,24.3
2012-06-04 02:34:00,0.0,,,,,,,,,,,0.96,-27.19,-25.07,-48,527,-920,17.2,28.6,-1.2,17.7,2.1,-31.6,5.73,2.43,-30.4,24.3
2012-06-04 02:35:00,0.0,,,,,,,,,,,0.99,-27.20,-25.41,-49,527,-919,17.2,28.6,-1.1,17.7,2.1,-31.6,5.73,2.43,-30.4,24.3
2012-06-04 02:36:00,0.0,,,,,,,,,,,0.98,-27.21,-25.74,-49,527,-920,17.2,28.6,-1.1,17.7,2.1,-31.6,5.73,2.43,-30.4,24.4
2012-06-04 02:37:00,0.0,,,,,,,,,,,0.98,-27.22,-26.04,-49,527,-920,17.2,28.4,-1.2,17.7,2.1,-31.6,5.73,2.43,-30.4,24.4
2012-06-04 02:38:00,0.0,,,,,,,,,,,0.92,-27.23,-26.32,-49,527,-920,17.2,28.3,-1.3,17.7,2.1,-31.6,5.73,2.43,-30.4,24.4
2012-06-04 02:39:00,0.0,,,,,,,,,,,0.91,-27.24,-26.58,-49,527,-920,17.3,28.3,-1.3,17.7,2.1,-31.6,5.73,2.43,-30.4,24.4
2012-06-04 02:40:00,0.0,,,,,,,,,,,0.92,-27.25,-26.84,-49,527,-920,17.3,28.2,-1.3,17.7,2.1,-31.7,5.73,2.44,-30.4,24.4
2012-06-04 02:41:00,0.0,,,,,,,,,,,0.96,-27.26,-27.08,-49,527,-919,17.3,28.1,-1.4,17.7,2.1,-31.7,5.73,2.43,-30.4,24.4
2012-06-04 02:42:00,0.0,,,,,,,,,,,0.95,-27.27,-27.27,-49,527,-919,17.3,28.0,-1.4,17.8,2.1,-31.7,5.73,2.43,-30.4,24.4
2012-06-04 02:43:00,0.0,,,,,,,,,,,0.96,-27.29,-27.04,-49,527,-920,17.3,27.7,-1.5,17.8,2.1,-31.7,5.73,2.43,-30.4,24.5
2012-06-04 02:44:00,0.0,,,,,,,,,,,0.99,-27.29,-27.10,-48,527,-920,17.3,27.7,-1.5,17.8,2.1,-31.7,5.73,2.44,-30.4,24.4
2012-06-04 02:45:00,0.0,,,,,,,,,,,0.99,-27.30,-27.28,-49,528,-920,17.3,27.8,-1.5,17.8,2.1,-31.7,5.73,2.43,-30.4,24.4
2012-06-04 02:46:00,0.0,,,,,,,,,,,0.85,-27.31,-27.14,-49,527,-920,17.3,27.7,-1.5,17.8,2.1,-31.8,5.73,2.43,-30.3,24.4
2012-06-04 02:47:00,0.0,,,,,,,,,,,0.98,-27.32,-27.08,-49,527,-919,17.3,27.5,-1.6,17.8,2.1,-31.8,5.73,2.42,-30.4,24.4
2012-06-04 02:48:00,0.0,,,,,,,,,,,0.93,-27.32,-27.24,-49,527,-919,17.3,27.3,-1.7,17.8,2.1,-31.8,5.73,2.43,-30.4,24.4
2012-06-04 02:49:00,0.0,,,,,,,,,,,0.91,-27.33,-27.26,-49,527,-920,17.3,27.1,-1.8,17.8,2.1,-31.8,5.73,2.42,-30.3,24.4
2012-06-04 02:50:00,0.0,,,,,,,,,,,0.93,-27.35,-27.08,-49,528,-920,17.4,27.1,-1.8,17.8,2.1,-31.8,5.73,2.42,-30.3,24.5
2012-06-04 02:51:00,0.0,,,,,,,,,,,0.94,-27.36,-27.21,-49,528,-920,17.4,27.2,-1.7,17.8,2.1,-31.8,5.73,2.42,-30.3,24.4
2012-06-04 02:52:00,0.0,,,,,,,,,,,0.94,-27.36,-27.36,-49,528,-920,17.4,27.3,-1.7,17.8,2.1,-31.8,5.73,2.42,-30.3,24.4
2012-06-04 02:53:00,0.0,,,,,,,,,,,0.96,-27.37,-27.11,-49,528,-919,17.4,27.1,-1.8,17.8,2.1,-31.8,5.73,2.43,-30.3,24.4
2012-06-04 02:54:00,0.0,,,,,,,,,,,0.99,-27.39,-27.19,-49,528,-919,17.4,27.0,-1.8,17.8,2.1,-31.8,5.73,2.43,-30.3,24.4
2012-06-04 02:55:00,0.0,,,,,,,,,,,1.00,-27.38,-27.36,-49,528,-920,17.4,27.1,-1.8,17.8,2.1,-31.8,5.73,2.42,-30.3,24.5
2012-06-04 02:56:00,0.0,,,,,,,,,,,0.82,-27.38,-27.23,-49,528,-920,17.4,27.1,-1.8,17.8,2.1,-31.7,5.73,2.43,-30.3,24.5
2012-06-04 02:57:00,0.0,,,,,,,,,,,0.78,-26.60,-27.18,-49,528,-920,17.4,26.9,-1.8,17.9,2.1,-31.6,5.73,2.43,-30.3,24.5
2012-06-04 02:58:00,0.0,,,,,,,,,,,0.90,-24.81,-27.31,-49,528,-920,17.4,26.8,-1.9,17.9,2.3,-30.8,5.73,2.43,-30.3,24.5
2012-06-04 02:59:00,0.0,,,,,,,,,,,0.95,-22.86,-27.42,-49,528,-920,17.4,26.8,-1.9,17.9,2.5,-30.0,5.73,2.43,-30.3,24.5
2012-06-04 03:00:00,0.0,,,,,,,,,,,0.89,-20.95,-27.50,-49,528,-919,17.4,27.0,-1.8,17.8,2.6,-29.6,5.73,2.43,-30.3,24.5
2012-06-04 03:01:00,0.0,1.8917,0.0010,401.49,0.20,-0.6,2.3,138.05,30.42,24.65,36.48,0.77,-19.12,-27.57,-49,528,-920,17.4,27.0,-1.8,17.9,2.6,-29.3,5.73,2.42,-30.3,24.5
2012-06-04 03:02:00,0.0,1.8918,0.0009,401.46,0.18,-0.3,3.5,138.04,30.42,24.64,36.48,0.84,-17.36,-27.62,-49,528,-920,17.4,27.0,-1.8,17.8,2.6,-29.4,5.73,2.43,-30.3,24.5
2012-06-04 03:03:00,0.0,1.8922,0.0007,401.39,0.18,-1.0,0.0,138.04,30.43,24.64,36.48,0.92,-15.70,-27.66,-49,528,-920,17.4,27.2,-1.7,17.8,2.6,-29.5,5.73,2.43,-30.3,24.5
2012-06-04 03:04:00,0.0,,,,,,,,,,,0.96,-14.13,-27.70,-49,528,-920,17.4,27.3,-1.7,17.9,2.6,-29.6,5.73,2.42,-30.3,24.5
2012-06-04 03:05:00,0.0,,,,,,,,,,,0.85,-12.64,-27.73,-49,528,-920,17.4,27.4,-1.6,17.9,2.5,-29.8,5.73,2.42,-30.3,24.5
2012-06-04 03:06:00,0.0,,,,,,,,,,,0.80,-11.22,-27.75,-49,528,-919,17.4,27.3,-1.7,17.9,2.5,-30.0,5.73,2.42,-30.3,24.5
2012-06-04 03:07:00,0.0,,,,,,,,,,,0.86,-9.88,-27.78,-49,528,-919,17.4,27.2,-1.7,17.9,2.4,-30.1,5.73,2.42,-30.3,24.5
2012-06-04 03:08:00,0.0,,,,,,,,,,,0.91,-8.61,-27.79,-49,528,-920,17.4,27.2,-1.7,17.9,2.4,-30.3,5.73,2.42,-30.3,24.6
2012-06-04 03:09:00,0.0,,,,,,,,,,,0.95,-7.40,-27.81,-49,528,-920,17.4,27.1,-1.8,17.9,2.4,-30.4,5.73,2.42,-30.3,24.6
2012-06-04 03:10:00,0.0,,,,,,,,,,,0.85,-6.25,-27.83,-49,528,-920,17.4,27.2,-1.7,17.9,2.4,-30.5,5.73,2.42,-30.3,24.6
2012-06-04 03:11:00,0.0,,,,,,,,,,,0.80,-5.15,-27.84,-49,528,-920,17.4,27.4,-1.6,17.9,2.3,-30.5,5.73,2.42,-30.3,24.6
2012-06-04 03:12:00,0.0,,,,,,,,,,,0.87,-4.11,-27.86,-49,528,-920,17.4,27.1,-1.7,17.9,2.3,-30.6,5.73,2.42,-30.3,24.6
2012-06-04 03:13:00,0.0,,,,,,,,,,,0.90,-3.12,-27.87,-49,528,-919,17.4,27.1,-1.7,17.9,2.3,-30.7,5.73,2.43,-30.3,24.6
2012-06-04 03:14:00,0.0,,,,,,,,,,,0.94,-2.19,-27.88,-49,528,-919,17.4,27.4,-1.6,17.9,2.3,-30.7,5.73,2.43,-30.3,24.5
2012-06-04 03:15:00,0.0,,,,,,,,,,,0.93,-1.29,-27.89,-48,528,-920,17.4,27.1,-1.8,17.9,2.3,-30.8,5.73,2.43,-30.3,24.6
2012-06-04 03:16:00,0.0,,,,,,,,,,,0.84,-0.44,-27.89,-49,528,-920,17.4,27.5,-1.5,17.9,2.3,-30.9,5.73,2.43,-30.3,24.6